Notices

What's New in latest Release from April 7th, 2021:

- Updated Glossary, including Speed of Maximum Gust, and Total Hourly Precipitation

- Updated national and regional climate services offices contacts and prices information

- Addition of station inventory lists for 1981-2010, 1971-2000, and 1961-1990 Normals.

If you haven't already, please take our survey and provide feedback about our website: https://eccc.sondage-survey.ca/f/LanguageSelection.aspx?s=442ca660-fcf1-47c0-95a9-59707d6fd709

Hourly Data Report for November 28, 2006

TORONTO CITY
ONTARIO

43°40'00.000" N
79°24'00.000" W
112.50 m
6158355
71508
XTO

Download Data

Hourly Data (November 2006)
Hourly Data Report for November 28, 2006
TIME
LST
Temp Definition
°C
Dew Point Definition
°C
Rel Hum Definition
%
Precip. Amount Definition
mm

Wind Dir Definition
10's deg

Wind Spd Definition
km/h
Visibility Definition
km
Stn Press Definition
kPa
Hmdx Definition


Wind Chill Definition


Weather Definition


00:00 10.1 8.5 90   LegendMM LegendMM   101.02     LegendNANA
01:00 8.8 8.2 96   LegendMM LegendMM   101.04     LegendNANA
02:00 8.3 7.8 97   LegendMM LegendMM   101.07     LegendNANA
03:00 8.0 7.5 97   LegendMM LegendMM   101.12     LegendNANA
04:00 7.6 7.1 97   LegendMM LegendMM   101.12     LegendNANA
05:00 7.4 6.9 97   LegendMM LegendMM   101.15     LegendNANA
06:00 7.3 6.8 97   LegendMM LegendMM   101.16     LegendNANA
07:00 6.9 6.6 98   LegendMM LegendMM   101.15     LegendNANA
08:00 6.9 6.7 99   LegendMM LegendMM   101.17     LegendNANA
09:00 6.9 6.7 99   LegendMM LegendMM   101.18     LegendNANA
10:00 7.0 6.8 99   LegendMM LegendMM   101.18     LegendNANA
11:00 7.2 6.8 97   LegendMM LegendMM   101.16     LegendNANA
12:00 6.9 6.4 97   LegendMM LegendMM   101.06     LegendNANA
13:00 7.0 6.5 97   LegendMM LegendMM   100.98     LegendNANA
14:00 6.7 6.1 96   LegendMM LegendMM   100.94     LegendNANA
15:00 6.6 6.1 97   LegendMM LegendMM   100.85     LegendNANA
16:00 6.2 5.9 98   LegendMM LegendMM   100.89     LegendNANA
17:00 6.1 5.9 99   LegendMM LegendMM   100.89     LegendNANA
18:00 5.9 5.8 99   LegendMM LegendMM   100.89     LegendNANA
19:00 5.9 5.8 99   LegendMM LegendMM   100.90     LegendNANA
20:00 5.9 5.8 99   LegendMM LegendMM   100.90     LegendNANA
21:00 5.9 5.8 99   LegendMM LegendMM   100.92     LegendNANA
22:00 5.9 5.8 99   LegendMM LegendMM   100.89     LegendNANA
23:00 5.9 5.9 100   LegendMM LegendMM   100.84     LegendNANA

Notes on Data Quality.

Legend

  • E = Estimated
  • M = Missing
  • NA = Not Available*
  • [empty] = Indicates an unobserved value
Date modified: